星链-2373 (STARLINK-2373 )

导读

STARLINK-2373是美国SpaceX公司星链(Starlink)卫星互联网项目中的一颗低轨通信卫星,于2021年3月11日发射升空。作为星链星座组网的组成部分,它运行在近地轨道,旨在为全球偏远地区、网络基础设施薄弱区域提供低延迟、高速率的宽带互联网服务。该卫星依托星链项目规模化组网优势,助力实现全球互联网覆盖,是SpaceX构建星链低轨卫星星座过程中的一环。

基本信息
目录编号:
47796
目录名称:
STARLINK-2373
国际标识:
2021-018K
轨道中心:
EARTH
卫星名称:
星链-2373
卫星全名:
星链-2373 (STARLINK-2373 )
卫星状态:
在轨 (已飞行1925 天)
发射日期:
2021-03-11 UTC
国别 :
美国 (US)
星等 :
--
轨道信息
数据来源 国际轨道数据 AOE轨道数据
星历时间 2026-06-18T10:24:46+0800
15小时前
查看轨道信息
2026-06-15T05:00:00+0800
3天前
查看轨道信息
半长轴 6840.508km 6841.248km
偏心率 0.0002855 0.0003419
轨道倾角 53.158° 53.155°
近地点辐角 74.512° 42.095°
升交点赤经 131.563° 146.642°
平近点角 285.620° 130.967°
近地点 460.418km 460.771km
远地点 464.324km 465.451km
周期 93.841分钟 93.856分钟
每日圈数 15.34512 15.34263
详细信息
固有亮度:
5
最大亮度:
2.5
卫星平台:
Starlink V1.0
覆盖范围:
全球
运营商:
太空探索技术公司
运营商所在国:
美国
制造商(研发单位):
太空探索技术公司
制造商所在国:
美国
使用方式:
暂无
卫星简介
星链(Starlink)计划是由太空探索技术公司(SpaceX)提出的一个巨型低轨卫星互联网星座项目,计划在2019年至2024年间在太空搭建由约1.2万颗卫星组成的“星链”网络,其中1584颗将部署在地球上空550千米处的近地轨道,并从2020年开始工作。该卫星仍在工作。
2D轨道图
3D轨道图
轨道高度分析图
轨道倾角分析图
轨道综合分析图
查看轨道综合分析图